Weather History for Cambridge, United Kingdom

Change the Weather History Date:

Tuesday, October 2, 2012

  Actual Average Record
Temperature  
Mean Temperature 56 °F -  
Max Temperature 62 °F 55 °F 84 °F (2011)
Min Temperature 50 °F 46 °F 39 °F (1996)
Degree Days  
Heating Degree Days 9    
Growing Degree Days 6 (Base 50)    
Moisture  
Dew Point 50 °F    
Average Humidity 77    
Maximum Humidity 94    
Minimum Humidity 59    
Precipitation  
Precipitation 0.00 in - - ()
Sea Level Pressure  
Sea Level Pressure 29.77 in    
Wind  
Wind Speed 10 mph ()    
Max Wind Speed 20 mph    
Max Gust Speed 32 mph    
Visibility 6.2 miles    
Events Rain    
Averages and records for this station are not official NWS values.
T = Trace of Precipitation, MM = Missing Value Source: Averaged Metar Reports

Daily Weather History Graph

Daily Weather History Graph

Search for Another Location

Airport:

Trip Planner

Search our weather history database for the weather conditions in past years. The results will help you decide how hot, cold, wet, or windy it might be!

Date:

Astronomy

Oct. 02, 2012 Rise Set
Actual Time 7:02 AM BST 6:33 PM BST
Civil Twilight 6:28 AM BST 7:07 PM BST
Nautical Twilight 5:49 AM BST 7:46 PM BST
Astronomical Twilight 5:08 AM BST 8:26 PM BST
Moon 7:11 PM BST (10/2) 9:39 AM BST (10/2)
Length of Visible Light 12h 38m
Length of Day
11h 31m
Waning Gibbous, 95% of the Moon is Illuminated
Oct 2
Waning Gibbous
Oct 8
Last Quarter
Oct 15
New
Oct 22
First Quarter
Oct 29
Full

Hourly Weather History & Observations

Time (BST) Temp. Dew Point Humidity Pressure Visibility Wind Dir Wind Speed Gust Speed Precip Events Conditions
6:20 AM 50.0 °F 46.4 °F 87% 29.83 in 6.2 mi South 8.1 mph - N/A   Partly Cloudy
6:50 AM 50.0 °F 46.4 °F 87% 29.83 in 6.2 mi South 8.1 mph - N/A   Partly Cloudy
7:20 AM 50.0 °F 46.4 °F 87% 29.83 in 6.2 mi South 9.2 mph - N/A   Partly Cloudy
7:50 AM 50.0 °F 48.2 °F 94% 29.83 in - South 10.4 mph - N/A   Clear
8:20 AM 51.8 °F 48.2 °F 88% 29.83 in 6.2 mi South 6.9 mph - N/A   Partly Cloudy
8:50 AM 53.6 °F 50.0 °F 88% 29.83 in 6.2 mi South 9.2 mph - N/A   Partly Cloudy
9:20 AM 53.6 °F 50.0 °F 88% 29.83 in 6.2 mi South 8.1 mph - N/A   Partly Cloudy
9:50 AM 53.6 °F 50.0 °F 88% 29.83 in - South 9.2 mph - N/A   Clear
10:20 AM 55.4 °F 50.0 °F 82% 29.83 in - South 9.2 mph - N/A   Clear
10:50 AM 59.0 °F 50.0 °F 72% 29.83 in 6.2 mi SSW 10.4 mph - N/A   Partly Cloudy
11:20 AM 60.8 °F 50.0 °F 68% 29.80 in 6.2 mi South 12.7 mph 24.2 mph N/A   Partly Cloudy
11:50 AM 60.8 °F 51.8 °F 72% 29.80 in 6.2 mi South 15.0 mph - N/A   Scattered Clouds
12:20 PM 62.6 °F 51.8 °F 68% 29.80 in 6.2 mi SSW 15.0 mph 28.8 mph N/A   Scattered Clouds
12:50 PM 62.6 °F 51.8 °F 68% 29.77 in 6.2 mi South 13.8 mph 26.5 mph N/A   Scattered Clouds
1:20 PM 62.6 °F 51.8 °F 68% 29.77 in 6.2 mi South 17.3 mph - N/A   Scattered Clouds
1:50 PM 62.6 °F 51.8 °F 68% 29.77 in 6.2 mi SSW 16.1 mph - N/A   Scattered Clouds
2:20 PM 62.6 °F 50.0 °F 63% 29.74 in 6.2 mi South 19.6 mph 32.2 mph N/A   Scattered Clouds
2:50 PM 62.6 °F 50.0 °F 63% 29.74 in 6.2 mi SSW 17.3 mph 28.8 mph N/A   Scattered Clouds
3:20 PM 62.6 °F 48.2 °F 59% 29.74 in 6.2 mi South 16.1 mph 28.8 mph N/A   Scattered Clouds
3:50 PM 62.6 °F 50.0 °F 63% 29.74 in 6.2 mi South 16.1 mph - N/A   Scattered Clouds
4:20 PM 60.8 °F 50.0 °F 68% 29.74 in 6.2 mi South 16.1 mph - N/A   Scattered Clouds
4:50 PM 60.8 °F 50.0 °F 68% 29.71 in 6.2 mi South 13.8 mph - N/A   Scattered Clouds
5:20 PM 60.8 °F 50.0 °F 68% 29.71 in 6.2 mi South 13.8 mph - N/A   Scattered Clouds
5:50 PM 59.0 °F 51.8 °F 77% 29.71 in 6.2 mi South 17.3 mph - N/A   Partly Cloudy
6:20 PM 59.0 °F 51.8 °F 77% 29.71 in 6.2 mi South 13.8 mph - N/A   Scattered Clouds
6:50 PM 57.2 °F 51.8 °F 82% 29.71 in 6.2 mi South 12.7 mph - N/A   Scattered Clouds
7:50 PM 57.2 °F 51.8 °F 82% 29.68 in 6.2 mi South 11.5 mph - N/A   Scattered Clouds
8:20 PM 55.4 °F 51.8 °F 88% 29.68 in 6.2 mi South 15.0 mph - N/A   Scattered Clouds
8:50 PM 55.4 °F 51.8 °F 88% 29.68 in 6.2 mi South 15.0 mph - N/A Rain Light Rain